User: anonymous   Login
Location: Unspecified
(0.0000°N, 0.0000°E)
Time: 06:19:36
(UTC+00:00)
Language:

XW-2A - Orbit

View from above orbital plane
View from above orbital plane
View from above satellite
View from above satellite

Ground track
Ground track

The orbit data is extracted from the following two-line orbital elements,

1 40903U 15049E   19138.81968701  .00002577  00000-0  62915-4 0  9995
2 40903  97.3409 181.4049 0011822 256.0477 191.8320 15.41740638205495
Epoch (UTC): 18 May 2019 19:40:20
Eccentricity: 0.0011822
inclination: 97.3409°
perigee height: 433 km
apogee height: 449 km
right ascension of ascending node: 181.4049°
argument of perigee: 256.0477°
revolutions per day: 15.41740638
mean anomaly at epoch: 191.8320°
orbit number at epoch: 20549

The dashed part of the orbit path shows where the satellite is in the earth's shadow,  

DLR